Time,TemperatureF,DewpointF,PressureIn,WindDirection,WindDirectionDegrees,WindSpeedMPH,WindSpeedGustMPH,Humidity,HourlyPrecipIn,Conditions,Clouds,dailyrainin,SoftwareType,DateUTC
2013-05-04 00:04:00,52.6,40.8,30.42,SE,135,0.0,2.0,64,0.00,,,-99.99,WeatherLink 5.7,2013-05-04 04:04:00,
2013-05-04 00:14:00,52.2,40.8,30.42,SE,135,0.0,1.0,65,0.00,,,-99.99,WeatherLink 5.7,2013-05-04 04:14:00,
2013-05-04 00:24:00,51.8,40.4,30.42,North,-999,0.0,0.0,65,0.00,,,-99.99,WeatherLink 5.7,2013-05-04 04:24:00,
2013-05-04 00:34:00,51.1,40.5,30.42,North,-999,0.0,1.0,67,0.00,,,-99.99,WeatherLink 5.7,2013-05-04 04:34:00,
2013-05-04 00:44:00,50.7,40.9,30.42,SE,135,0.0,2.0,69,0.00,,,-99.99,WeatherLink 5.7,2013-05-04 04:44:00,
2013-05-04 00:54:00,50.7,40.9,30.41,SE,135,0.0,1.0,69,0.00,,,-99.99,WeatherLink 5.7,2013-05-04 04:54:00,
2013-05-04 01:04:00,50.6,41.2,30.41,North,-999,0.0,1.0,70,0.00,,,-99.99,WeatherLink 5.7,2013-05-04 05:04:00,
2013-05-04 01:14:00,50.4,41.0,30.41,SE,135,0.0,1.0,70,0.00,,,-99.99,WeatherLink 5.7,2013-05-04 05:14:00,
2013-05-04 01:24:00,50.1,41.1,30.41,SE,135,0.0,2.0,71,0.00,,,-99.99,WeatherLink 5.7,2013-05-04 05:24:00,
2013-05-04 01:34:00,49.7,41.4,30.40,SE,135,1.0,3.0,73,0.00,,,-99.99,WeatherLink 5.7,2013-05-04 05:34:00,
2013-05-04 01:44:00,50.4,41.7,30.40,SE,135,0.0,2.0,72,0.00,,,-99.99,WeatherLink 5.7,2013-05-04 05:44:00,
2013-05-04 01:54:00,50.4,41.3,30.40,SE,135,1.0,2.0,71,0.00,,,-99.99,WeatherLink 5.7,2013-05-04 05:54:00,
2013-05-04 02:04:00,50.8,41.4,30.39,SE,135,0.0,2.0,70,0.00,,,-99.99,WeatherLink 5.7,2013-05-04 06:04:00,
2013-05-04 02:14:00,49.9,41.2,30.39,SE,135,1.0,3.0,72,0.00,,,-99.99,WeatherLink 5.7,2013-05-04 06:14:00,
2013-05-04 02:24:00,48.7,40.8,30.38,SE,135,0.0,2.0,74,0.00,,,-99.99,WeatherLink 5.7,2013-05-04 06:24:00,
2013-05-04 02:34:00,48.9,41.0,30.38,SE,135,1.0,3.0,74,0.00,,,-99.99,WeatherLink 5.7,2013-05-04 06:34:00,
2013-05-04 02:44:00,49.0,41.1,30.38,SE,135,0.0,3.0,74,0.00,,,-99.99,WeatherLink 5.7,2013-05-04 06:44:00,
2013-05-04 02:54:00,48.5,40.9,30.37,SE,135,2.0,4.0,75,0.00,,,-99.99,WeatherLink 5.7,2013-05-04 06:54:00,
2013-05-04 03:04:00,48.1,41.2,30.37,SSE,157,2.0,4.0,77,0.00,,,-99.99,WeatherLink 5.7,2013-05-04 07:04:00,
2013-05-04 03:14:00,47.9,41.0,30.36,SSE,157,1.0,4.0,77,0.00,,,-99.99,WeatherLink 5.7,2013-05-04 07:14:00,
2013-05-04 03:24:00,47.8,41.3,30.36,SSE,157,1.0,4.0,78,0.00,,,-99.99,WeatherLink 5.7,2013-05-04 07:24:00,
2013-05-04 03:34:00,47.7,41.5,30.36,SSE,157,2.0,5.0,79,0.00,,,-99.99,WeatherLink 5.7,2013-05-04 07:34:00,
2013-05-04 03:44:00,47.7,41.2,30.35,SSE,157,1.0,3.0,78,0.00,,,-99.99,WeatherLink 5.7,2013-05-04 07:44:00,
2013-05-04 03:54:00,47.6,41.1,30.35,SSE,157,0.0,3.0,78,0.00,,,-99.99,WeatherLink 5.7,2013-05-04 07:54:00,
2013-05-04 04:04:00,47.6,41.4,30.35,SSE,157,1.0,2.0,79,0.00,,,-99.99,WeatherLink 5.7,2013-05-04 08:04:00,
2013-05-04 04:14:00,47.7,41.2,30.35,SSE,157,1.0,4.0,78,0.00,,,-99.99,WeatherLink 5.7,2013-05-04 08:14:00,
2013-05-04 04:24:00,47.7,41.5,30.35,SSE,157,0.0,2.0,79,0.00,,,-99.99,WeatherLink 5.7,2013-05-04 08:24:00,
2013-05-04 04:34:00,48.6,41.7,30.35,SSE,157,1.0,2.0,77,0.00,,,-99.99,WeatherLink 5.7,2013-05-04 08:34:00,
2013-05-04 04:44:00,48.7,41.8,30.35,SSE,157,1.0,2.0,77,0.00,,,-99.99,WeatherLink 5.7,2013-05-04 08:44:00,
2013-05-04 04:54:00,49.3,41.7,30.35,SSE,157,1.0,2.0,75,0.00,,,-99.99,WeatherLink 5.7,2013-05-04 08:54:00,
2013-05-04 05:04:00,50.3,42.0,30.35,SSE,157,1.0,2.0,73,0.00,,,-99.99,WeatherLink 5.7,2013-05-04 09:04:00,
2013-05-04 05:14:00,49.4,41.1,30.35,SSE,157,0.0,1.0,73,0.00,,,-99.99,WeatherLink 5.7,2013-05-04 09:14:00,
2013-05-04 05:24:00,47.8,40.3,30.35,North,-999,0.0,0.0,75,0.00,,,-99.99,WeatherLink 5.7,2013-05-04 09:24:00,
2013-05-04 05:34:00,46.7,40.2,30.35,SSE,157,0.0,1.0,78,0.00,,,-99.99,WeatherLink 5.7,2013-05-04 09:34:00,
2013-05-04 05:44:00,46.8,40.3,30.35,SSE,157,0.0,1.0,78,0.00,,,-99.99,WeatherLink 5.7,2013-05-04 09:44:00,
2013-05-04 05:54:00,47.0,40.5,30.35,SSE,157,1.0,2.0,78,0.00,,,-99.99,WeatherLink 5.7,2013-05-04 09:54:00,
2013-05-04 06:04:00,48.1,40.9,30.35,SSE,157,1.0,2.0,76,0.00,,,-99.99,WeatherLink 5.7,2013-05-04 10:04:00,
2013-05-04 06:14:00,48.4,40.8,30.35,SSE,157,1.0,2.0,75,0.00,,,-99.99,WeatherLink 5.7,2013-05-04 10:14:00,
2013-05-04 06:24:00,48.8,40.5,30.35,SSE,157,1.0,3.0,73,0.00,,,-99.99,WeatherLink 5.7,2013-05-04 10:24:00,
2013-05-04 06:34:00,48.4,40.1,30.35,SSE,157,0.0,2.0,73,0.00,,,-99.99,WeatherLink 5.7,2013-05-04 10:34:00,
2013-05-04 06:44:00,47.2,40.0,30.35,SSE,157,0.0,2.0,76,0.00,,,-99.99,WeatherLink 5.7,2013-05-04 10:44:00,
2013-05-04 06:54:00,47.1,40.6,30.35,SSE,157,0.0,4.0,78,0.00,,,-99.99,WeatherLink 5.7,2013-05-04 10:54:00,
2013-05-04 07:04:00,47.7,41.2,30.36,SSE,157,0.0,3.0,78,0.00,,,-99.99,WeatherLink 5.7,2013-05-04 11:04:00,
2013-05-04 07:14:00,48.7,41.5,30.36,SE,135,2.0,5.0,76,0.00,,,-99.99,WeatherLink 5.7,2013-05-04 11:14:00,
2013-05-04 07:24:00,49.7,41.4,30.36,ENE,67,3.0,6.0,73,0.00,,,-99.99,WeatherLink 5.7,2013-05-04 11:24:00,
2013-05-04 07:34:00,50.6,41.5,30.36,ENE,67,3.0,6.0,71,0.00,,,-99.99,WeatherLink 5.7,2013-05-04 11:34:00,
2013-05-04 07:44:00,51.7,41.5,30.36,NE,45,3.0,7.0,68,0.00,,,-99.99,WeatherLink 5.7,2013-05-04 11:44:00,
2013-05-04 07:50:00,52.5,41.5,30.36,NE,45,5.0,9.0,66,0.00,,,-99.99,WeatherLink 5.7,2013-05-04 11:50:00,
2013-05-04 08:04:00,53.2,41.3,30.36,NNE,22,4.0,8.0,64,0.00,,,-99.99,WeatherLink 5.7,2013-05-04 12:04:00,
2013-05-04 08:14:00,53.9,40.8,30.36,NNE,22,3.0,8.0,61,0.00,,,-99.99,WeatherLink 5.7,2013-05-04 12:14:00,
2013-05-04 08:24:00,54.7,39.8,30.36,NNE,22,3.0,8.0,57,0.00,,,-99.99,WeatherLink 5.7,2013-05-04 12:24:00,
2013-05-04 08:34:00,55.5,40.0,30.36,NNE,22,6.0,16.0,56,0.00,,,-99.99,WeatherLink 5.7,2013-05-04 12:34:00,
2013-05-04 08:44:00,55.0,39.6,30.36,NNE,22,8.0,13.0,56,0.00,,,-99.99,WeatherLink 5.7,2013-05-04 12:44:00,
2013-05-04 08:54:00,55.6,39.2,30.36,NNE,22,7.0,13.0,54,0.00,,,-99.99,WeatherLink 5.7,2013-05-04 12:54:00,
2013-05-04 09:04:00,56.3,39.4,30.36,East,90,6.0,14.0,53,0.00,,,-99.99,WeatherLink 5.7,2013-05-04 13:04:00,
2013-05-04 09:14:00,57.0,39.5,30.36,ENE,67,5.0,10.0,52,0.00,,,-99.99,WeatherLink 5.7,2013-05-04 13:14:00,
2013-05-04 09:24:00,57.6,39.1,30.36,East,90,6.0,13.0,50,0.00,,,-99.99,WeatherLink 5.7,2013-05-04 13:24:00,
2013-05-04 09:34:00,58.1,39.0,30.36,East,90,6.0,10.0,49,0.00,,,-99.99,WeatherLink 5.7,2013-05-04 13:34:00,
2013-05-04 09:44:00,58.7,35.7,30.35,NNE,22,6.0,12.0,42,0.00,,,-99.99,WeatherLink 5.7,2013-05-04 13:44:00,
2013-05-04 09:54:00,58.8,36.3,30.35,NE,45,5.0,10.0,43,0.00,,,-99.99,WeatherLink 5.7,2013-05-04 13:54:00,
2013-05-04 10:04:00,59.4,35.7,30.35,ENE,67,7.0,15.0,41,0.00,,,-99.99,WeatherLink 5.7,2013-05-04 14:04:00,
2013-05-04 10:14:00,60.0,35.0,30.35,East,90,6.0,14.0,39,0.00,,,-99.99,WeatherLink 5.7,2013-05-04 14:14:00,
2013-05-04 10:24:00,61.0,33.8,30.35,ESE,112,4.0,10.0,36,0.00,,,-99.99,WeatherLink 5.7,2013-05-04 14:24:00,
2013-05-04 10:34:00,60.6,35.5,30.35,East,90,7.0,14.0,39,0.00,,,-99.99,WeatherLink 5.7,2013-05-04 14:34:00,
2013-05-04 10:44:00,61.2,34.0,30.35,ENE,67,5.0,11.0,36,0.00,,,-99.99,WeatherLink 5.7,2013-05-04 14:44:00,
2013-05-04 10:54:00,61.1,34.6,30.35,ESE,112,8.0,17.0,37,0.00,,,-99.99,WeatherLink 5.7,2013-05-04 14:54:00,
2013-05-04 11:04:00,61.4,32.8,30.35,ENE,67,5.0,11.0,34,0.00,,,-99.99,WeatherLink 5.7,2013-05-04 15:04:00,
2013-05-04 11:14:00,61.1,33.9,30.35,ENE,67,7.0,14.0,36,0.00,,,-99.99,WeatherLink 5.7,2013-05-04 15:14:00,
2013-05-04 11:24:00,61.6,33.7,30.35,NE,45,6.0,14.0,35,0.00,,,-99.99,WeatherLink 5.7,2013-05-04 15:24:00,
2013-05-04 11:34:00,62.2,34.2,30.35,East,90,7.0,13.0,35,0.00,,,-99.99,WeatherLink 5.7,2013-05-04 15:34:00,
2013-05-04 11:44:00,62.1,34.1,30.34,East,90,6.0,10.0,35,0.00,,,-99.99,WeatherLink 5.7,2013-05-04 15:44:00,
2013-05-04 11:54:00,62.1,35.5,30.34,East,90,5.0,15.0,37,0.00,,,-99.99,WeatherLink 5.7,2013-05-04 15:54:00,
2013-05-04 12:04:00,63.4,34.5,30.34,ESE,112,4.0,11.0,34,0.00,,,-99.99,WeatherLink 5.7,2013-05-04 16:04:00,
2013-05-04 12:14:00,63.8,34.9,30.34,East,90,5.0,11.0,34,0.00,,,-99.99,WeatherLink 5.7,2013-05-04 16:14:00,
2013-05-04 12:24:00,64.4,34.6,30.33,ESE,112,5.0,12.0,33,0.00,,,-99.99,WeatherLink 5.7,2013-05-04 16:24:00,
2013-05-04 12:34:00,64.0,35.0,30.33,ENE,67,4.0,10.0,34,0.00,,,-99.99,WeatherLink 5.7,2013-05-04 16:34:00,
2013-05-04 12:44:00,64.1,35.1,30.33,East,90,5.0,12.0,34,0.00,,,-99.99,WeatherLink 5.7,2013-05-04 16:44:00,
2013-05-04 12:54:00,63.9,36.4,30.33,ENE,67,5.0,11.0,36,0.00,,,-99.99,WeatherLink 5.7,2013-05-04 16:54:00,
2013-05-04 13:04:00,64.6,38.4,30.33,ESE,112,4.0,10.0,38,0.00,,,-99.99,WeatherLink 5.7,2013-05-04 17:04:00,
2013-05-04 13:14:00,65.2,39.6,30.33,ESE,112,5.0,12.0,39,0.00,,,-99.99,WeatherLink 5.7,2013-05-04 17:14:00,
2013-05-04 13:24:00,65.1,40.2,30.32,SE,135,5.0,11.0,40,0.00,,,-99.99,WeatherLink 5.7,2013-05-04 17:24:00,
2013-05-04 13:34:00,65.0,38.8,30.32,SE,135,4.0,11.0,38,0.00,,,-99.99,WeatherLink 5.7,2013-05-04 17:34:00,
2013-05-04 13:44:00,66.2,40.5,30.32,SE,135,4.0,12.0,39,0.00,,,-99.99,WeatherLink 5.7,2013-05-04 17:44:00,
2013-05-04 13:54:00,65.6,40.6,30.32,SE,135,5.0,11.0,40,0.00,,,-99.99,WeatherLink 5.7,2013-05-04 17:54:00,
2013-05-04 14:04:00,65.0,40.7,30.32,SE,135,6.0,14.0,41,0.00,,,-99.99,WeatherLink 5.7,2013-05-04 18:04:00,
2013-05-04 14:14:00,64.5,40.3,30.32,ESE,112,6.0,14.0,41,0.00,,,-99.99,WeatherLink 5.7,2013-05-04 18:14:00,
2013-05-04 14:24:00,64.1,39.3,30.32,SE,135,5.0,12.0,40,0.00,,,-99.99,WeatherLink 5.7,2013-05-04 18:24:00,
2013-05-04 14:34:00,64.4,38.9,30.31,South,180,4.0,10.0,39,0.00,,,-99.99,WeatherLink 5.7,2013-05-04 18:34:00,
2013-05-04 14:44:00,63.9,38.4,30.31,SE,135,6.0,11.0,39,0.00,,,-99.99,WeatherLink 5.7,2013-05-04 18:44:00,
2013-05-04 14:54:00,63.8,38.4,30.31,SE,135,4.0,11.0,39,0.00,,,-99.99,WeatherLink 5.7,2013-05-04 18:54:00,
2013-05-04 15:04:00,63.9,38.4,30.31,SE,135,5.0,10.0,39,0.00,,,-99.99,WeatherLink 5.7,2013-05-04 19:04:00,
2013-05-04 15:14:00,63.6,36.8,30.31,SE,135,5.0,13.0,37,0.00,,,-99.99,WeatherLink 5.7,2013-05-04 19:14:00,
2013-05-04 15:24:00,62.6,36.6,30.31,SE,135,7.0,14.0,38,0.00,,,-99.99,WeatherLink 5.7,2013-05-04 19:24:00,
2013-05-04 15:34:00,62.2,36.9,30.31,ESE,112,8.0,15.0,39,0.00,,,-99.99,WeatherLink 5.7,2013-05-04 19:34:00,
2013-05-04 15:44:00,60.9,36.4,30.31,ESE,112,7.0,15.0,40,0.00,,,-99.99,WeatherLink 5.7,2013-05-04 19:44:00,
2013-05-04 15:54:00,61.0,37.1,30.30,SE,135,7.0,13.0,41,0.00,,,-99.99,WeatherLink 5.7,2013-05-04 19:54:00,
2013-05-04 16:04:00,60.1,36.9,30.30,SSE,157,7.0,13.0,42,0.00,,,-99.99,WeatherLink 5.7,2013-05-04 20:04:00,
2013-05-04 16:14:00,60.7,37.5,30.31,SE,135,6.0,15.0,42,0.00,,,-99.99,WeatherLink 5.7,2013-05-04 20:14:00,
2013-05-04 16:24:00,59.4,37.5,30.31,ESE,112,7.0,17.0,44,0.00,,,-99.99,WeatherLink 5.7,2013-05-04 20:24:00,
2013-05-04 16:34:00,59.8,37.8,30.30,SE,135,6.0,14.0,44,0.00,,,-99.99,WeatherLink 5.7,2013-05-04 20:34:00,
2013-05-04 16:44:00,58.6,37.9,30.30,ESE,112,7.0,14.0,46,0.00,,,-99.99,WeatherLink 5.7,2013-05-04 20:44:00,
2013-05-04 16:54:00,58.6,37.9,30.31,SSE,157,6.0,11.0,46,0.00,,,-99.99,WeatherLink 5.7,2013-05-04 20:54:00,
2013-05-04 17:04:00,57.8,38.8,30.31,ESE,112,8.0,14.0,49,0.00,,,-99.99,WeatherLink 5.7,2013-05-04 21:04:00,
2013-05-04 17:14:00,57.4,38.4,30.30,SE,135,5.0,13.0,49,0.00,,,-99.99,WeatherLink 5.7,2013-05-04 21:14:00,
2013-05-04 17:24:00,58.3,38.7,30.30,SSE,157,5.0,15.0,48,0.00,,,-99.99,WeatherLink 5.7,2013-05-04 21:24:00,
2013-05-04 17:34:00,57.4,39.9,30.31,SE,135,7.0,14.0,52,0.00,,,-99.99,WeatherLink 5.7,2013-05-04 21:34:00,
2013-05-04 17:44:00,56.3,39.9,30.30,ESE,112,7.0,15.0,54,0.00,,,-99.99,WeatherLink 5.7,2013-05-04 21:44:00,
2013-05-04 17:54:00,57.1,39.1,30.30,SSE,157,5.0,14.0,51,0.00,,,-99.99,WeatherLink 5.7,2013-05-04 21:54:00,
2013-05-04 18:04:00,56.6,40.1,30.31,ESE,112,6.0,12.0,54,0.00,,,-99.99,WeatherLink 5.7,2013-05-04 22:04:00,
2013-05-04 18:14:00,56.2,39.3,30.31,ESE,112,6.0,11.0,53,0.00,,,-99.99,WeatherLink 5.7,2013-05-04 22:14:00,
2013-05-04 18:24:00,55.8,39.4,30.31,ESE,112,6.0,13.0,54,0.00,,,-99.99,WeatherLink 5.7,2013-05-04 22:24:00,
2013-05-04 18:34:00,55.4,38.5,30.31,SE,135,5.0,12.0,53,0.00,,,-99.99,WeatherLink 5.7,2013-05-04 22:34:00,
2013-05-04 18:44:00,55.4,39.5,30.31,SE,135,6.0,14.0,55,0.00,,,-99.99,WeatherLink 5.7,2013-05-04 22:44:00,
2013-05-04 18:54:00,55.2,38.8,30.31,ESE,112,6.0,12.0,54,0.00,,,-99.99,WeatherLink 5.7,2013-05-04 22:54:00,
2013-05-04 19:04:00,54.9,38.6,30.31,ESE,112,5.0,9.0,54,0.00,,,-99.99,WeatherLink 5.7,2013-05-04 23:04:00,
2013-05-04 19:14:00,54.3,39.4,30.31,ESE,112,7.0,15.0,57,0.00,,,-99.99,WeatherLink 5.7,2013-05-04 23:14:00,
2013-05-04 19:24:00,53.6,38.7,30.31,ESE,112,5.0,12.0,57,0.00,,,-99.99,WeatherLink 5.7,2013-05-04 23:24:00,
2013-05-04 19:34:00,54.1,39.2,30.31,ESE,112,5.0,9.0,57,0.00,,,-99.99,WeatherLink 5.7,2013-05-04 23:34:00,
2013-05-04 19:44:00,53.6,38.3,30.31,ESE,112,5.0,11.0,56,0.00,,,-99.99,WeatherLink 5.7,2013-05-04 23:44:00,
2013-05-04 19:54:00,53.1,38.3,30.32,ESE,112,6.0,12.0,57,0.00,,,-99.99,WeatherLink 5.7,2013-05-04 23:54:00,
2013-05-04 20:04:00,52.0,38.5,30.32,ESE,112,7.0,14.0,60,0.00,,,-99.99,WeatherLink 5.7,2013-05-05 00:04:00,
2013-05-04 20:14:00,52.4,38.9,30.32,ESE,112,4.0,8.0,60,0.00,,,-99.99,WeatherLink 5.7,2013-05-05 00:14:00,
2013-05-04 20:24:00,53.3,38.9,30.32,SE,135,4.0,9.0,58,0.00,,,-99.99,WeatherLink 5.7,2013-05-05 00:24:00,
2013-05-04 20:34:00,52.8,39.7,30.32,ESE,112,5.0,10.0,61,0.00,,,-99.99,WeatherLink 5.7,2013-05-05 00:34:00,
2013-05-04 20:44:00,51.9,39.7,30.32,ESE,112,6.0,11.0,63,0.00,,,-99.99,WeatherLink 5.7,2013-05-05 00:44:00,
2013-05-04 20:54:00,51.1,39.3,30.33,ESE,112,7.0,12.0,64,0.00,,,-99.99,WeatherLink 5.7,2013-05-05 00:54:00,
2013-05-04 21:04:00,51.4,39.2,30.33,SE,135,5.0,10.0,63,0.00,,,-99.99,WeatherLink 5.7,2013-05-05 01:04:00,
2013-05-04 21:14:00,51.8,39.2,30.33,SE,135,4.0,8.0,62,0.00,,,-99.99,WeatherLink 5.7,2013-05-05 01:14:00,
2013-05-04 21:24:00,51.9,39.3,30.33,ESE,112,5.0,10.0,62,0.00,,,-99.99,WeatherLink 5.7,2013-05-05 01:24:00,
2013-05-04 21:34:00,52.6,39.1,30.33,ESE,112,3.0,8.0,60,0.00,,,-99.99,WeatherLink 5.7,2013-05-05 01:34:00,
2013-05-04 21:44:00,53.0,39.5,30.34,ESE,112,3.0,9.0,60,0.00,,,-99.99,WeatherLink 5.7,2013-05-05 01:44:00,
2013-05-04 21:54:00,52.9,39.4,30.34,ESE,112,3.0,7.0,60,0.00,,,-99.99,WeatherLink 5.7,2013-05-05 01:54:00,
2013-05-04 22:04:00,52.6,39.5,30.34,ESE,112,4.0,10.0,61,0.00,,,-99.99,WeatherLink 5.7,2013-05-05 02:04:00,
2013-05-04 22:14:00,52.5,39.0,30.34,ESE,112,4.0,8.0,60,0.00,,,-99.99,WeatherLink 5.7,2013-05-05 02:14:00,
2013-05-04 22:24:00,52.8,39.3,30.34,ESE,112,4.0,9.0,60,0.00,,,-99.99,WeatherLink 5.7,2013-05-05 02:24:00,
2013-05-04 22:34:00,52.6,38.7,30.34,ESE,112,3.0,7.0,59,0.00,,,-99.99,WeatherLink 5.7,2013-05-05 02:34:00,
2013-05-04 22:44:00,53.0,38.6,30.34,ESE,112,3.0,7.0,58,0.00,,,-99.99,WeatherLink 5.7,2013-05-05 02:44:00,
2013-05-04 22:54:00,52.1,38.6,30.34,ESE,112,4.0,9.0,60,0.00,,,-99.99,WeatherLink 5.7,2013-05-05 02:54:00,
2013-05-04 23:04:00,52.2,38.3,30.34,ESE,112,4.0,9.0,59,0.00,,,-99.99,WeatherLink 5.7,2013-05-05 03:04:00,
2013-05-04 23:14:00,52.5,37.7,30.34,ESE,112,4.0,10.0,57,0.00,,,-99.99,WeatherLink 5.7,2013-05-05 03:14:00,
2013-05-04 23:24:00,52.0,37.7,30.34,ESE,112,4.0,10.0,58,0.00,,,-99.99,WeatherLink 5.7,2013-05-05 03:24:00,
2013-05-04 23:34:00,52.0,38.1,30.34,ESE,112,3.0,7.0,59,0.00,,,-99.99,WeatherLink 5.7,2013-05-05 03:34:00,
2013-05-04 23:44:00,52.3,38.0,30.34,ESE,112,3.0,8.0,58,0.00,,,-99.99,WeatherLink 5.7,2013-05-05 03:44:00,
2013-05-04 23:54:00,52.3,38.4,30.34,ESE,112,3.0,6.0,59,0.00,,,-99.99,WeatherLink 5.7,2013-05-05 03:54:00,